Regional Weather Roundup
Issued by NWS State College, PA

Home | Current Version | Previous Version | Text Only | Print | Product List | Glossary Off
Versions: 1 2 3 4 5 6 7 8 9 10 11 12 13 14 15 16 17 18 19 20 21 22 23 24 25 26 27 28 29 30 31 32 33 34 35 36 37 38 39 40 41 42 43 44 45 46 47 48 49 50

000
ASUS41 KCTP 271603
RWRCTP

REGIONAL WEATHER ROUNDUP
NATIONAL WEATHER SERVICE STATE COLLEGE PA
1200 PM EDT MON JUL 27 2015

Note: "fair" indicates few or no clouds below 12,000 feet with no
significant weather and/or obstructions to visibility.

* = STATION THAT DOES NOT REPORT PRECIPITATION /E.G. RAIN...SNOW...ETC/
    THUNDER OR FOG.

PAZ002>004-007>009-013>016-020>023-029>032-271700-
WESTERN PENNSYLVANIA

CITY           SKY/WX    TMP DP  RH WIND       PRES   REMARKS
ERIE           SUNNY     81  66  60 N10       30.04S
MEADVILLE      MOSUNNY   83  61  47 VRB6      30.07R
FRANKLIN*      SUNNY     79  64  61 NE6       30.08S
NEW CASTLE     FAIR      81  70  69 CALM      30.05S
BEAVER COUNTY  SUNNY     82  66  57 SE5       30.05S
BUTLER*        SUNNY     79  70  73 E3        30.06F
PITTSBURGH INT MOSUNNY   83  65  54 VRB5      30.04S
PITTSBURGH     MOSUNNY   78  65  63 SE3       30.04S
INDIANA*       MOSUNNY   81  68  65 CALM      30.08S
LATROBE        MOSUNNY   81  68  65 VRB5      30.05S
WASHINGTON CO* NOT AVBL
$$

PAZ004>006-010>012-017>019-024>028-033>037-041-042-045-046-049>053-271700-
CENTRAL PENNSYLVANIA

CITY           SKY/WX    TMP DP  RH WIND       PRES   REMARKS
BRADFORD       SUNNY     78  56  46 E8        30.10S
DUBOIS         MOSUNNY   81  65  58 NE8       30.07S
CLEARFIELD     SUNNY     79  66  64 NE9       30.07S
JOHNSTOWN      MOSUNNY   78  65  63 VRB3      30.09R
ALTOONA        PTSUNNY   79  68  69 CALM      30.07R
STATE COLLEGE  CLOUDY    72  68  88 NE3       30.07S
WILLIAMSPORT   MOSUNNY   79  67  66 VRB3      30.02S
SELINSGROVE    CLOUDY    77  69  76 VRB3      30.04F
FT INDIANTOWN  PTSUNNY   76  69  79 E2        30.03F
CAPITAL CITY   CLOUDY    78  69  73 E6        30.03S
HARRISBURG     CLOUDY    79  70  74 S3        30.02S
YORK           PTSUNNY   78  70  76 CALM      30.03S
$$

PAZ038>040-043-044-047-048-054-055-060>062-067>071-271700-
EASTERN PENNSYLVANIA

CITY           SKY/WX    TMP DP  RH WIND       PRES   REMARKS
SCRANTON       CLOUDY    75  67  76 CALM      30.05F
MOUNT POCONO   CLOUDY    70  66  87 SE3       30.10S
ALLENTOWN      CLOUDY    79  68  69 NW3       30.04S
QUAKERTOWN*    NOT AVBL
READING        CLOUDY    79  69  71 S3        30.03S
LANCASTER      CLOUDY    77  69  76 SE6       30.03F
COATESVILLE    CLOUDY    75  72  88 SE5       30.06S
POTTSTOWN      CLOUDY    76  69  79 VRB5      30.06S
BLUE BELL      SUNNY     81  70  69 SW3       30.04S
DOYLESTOWN     PTSUNNY   79  67  66 W5        30.04S
WILLOW GROVE   NOT AVBL
NORTH PHILA    PTSUNNY   82  65  56 SE6       30.04F
PHILADELPHIA   PTSUNNY   81  69  67 S5        30.03F
$$



USA.gov is the U.S. government's official web portal to all federal, state and local government web resources and services.